Regional Weather Roundup
Issued by NWS Charleston, SC

Current Version | Previous Version | Graphics & Text | Print | Product List | Glossary On
Versions: 1 2 3 4 5 6 7 8 9 10 11 12 13 14 15 16 17 18 19 20 21 22 23 24 25 26 27 28 29 30 31 32 33 34 35 36 37 38 39 40 41 42 43 44 45 46 47 48 49 50
000 ASUS42 KCHS 281627 RWRCHS REGIONAL WEATHER ROUNDUP NATIONAL WEATHER SERVICE CHARLESTON SC 1200 PM EDT SUN MAY 28 2017 NOTE: "FAIR" INDICATES FEW OR NO CLOUDS BELOW 12,000 FEET WITH NO SIGNIFICANT WEATHER AND/OR OBSTRUCTIONS TO VISIBILITY. NOT ALL STATIONS ARE QUALITY CONTROLLED. USE DATA WITH CAUTION... ESPECIALLY DEWPOINT OBSERVATIONS. SCZ027-030-031-034>040-042>050-281700- ...SOUTHEAST SOUTH CAROLINA... CITY SKY/WX TMP DP RH WIND PRES REMARKS N CHARLESTON CLOUDY 85 70 60 SW14 29.92F WATERFRONT PRK N/A 84 71 65 W7 29.92F JOHNS ISLAND PTSUNNY 84 72 65 SW10 29.93F PINOPOLIS N/A 82 72 69 SW7 29.83F MONCKS CORNER FAIR 86 66 51 W8 29.90S SUMMERVILLE FAIR 84 70 61 SW7 29.92S BEAUFORT MCAS PTSUNNY 86 72 62 SW13 29.95F HX 92 BEAUFORT ARPT FAIR 86 70 58 W9 29.95F HX 90 HILTON HEAD IS SUNNY 86 70 58 W12 29.97S HX 90 WALTERBORO CLOUDY 86 72 62 W15G22 29.94S HX 92 ALLENDALE FAIR 86 72 62 W12G18 29.94R HX 92 ...SOUTHERN MIDLANDS AND PEE DEE... CITY SKY/WX TMP DP RH WIND PRES REMARKS GEORGETOWN FAIR 86 70 58 W10G17 29.90F HX 90 KINGSTREE FAIR 86 64 48 SW5 29.89R ORANGEBURG CLOUDY 82 70 66 SW8 29.92R BARNWELL FAIR 86 73 66 W13G18 29.94R HX 93 AIKEN FAIR 82 64 54 SW14 29.96S MANNING FAIR 86 70 58 SW15G24 29.90S HX 90 COLUMBIA PTSUNNY 86 63 45 SW17G24 29.89S SUMTER CLOUDY 85 65 51 SW12 29.87R FLORENCE SUNNY 87 66 49 SW8 29.87F MYRTLE BEACH SUNNY 88 72 58 W12 29.91F HX 94 N MYRTLE BEACH MOSUNNY 88 70 55 SW14 29.89F HX 93 $$ GAZ063-065-086>088-099>101-113>116-118-119-134>141-150-281700- ...SOUTHEAST GEORGIA... CITY SKY/WX TMP DP RH WIND PRES REMARKS SAVANNAH ARPT PTSUNNY 90 69 50 W10 29.97F HX 94 HUNTER AAF MOSUNNY 88 76 65 W14 29.94F HX 99 FORT STEWART MOSUNNY 87 70 55 W15G21 29.96F HX 92 STATESBORO MOSUNNY 84 73 69 W8 29.97S HX 90 SYLVANIA CLOUDY 83 74 73 W7 29.98R HX 90 CLAXTON FAIR 86 77 73 SW12G18 29.97S HX 97 ...CSRA...CENTRAL AND FAR SOUTHEAST GEORGIA... CITY SKY/WX TMP DP RH WIND PRES REMARKS THOMSON CLOUDY 83 69 61 W12G18 29.98F AUGUSTA-BUSH CLOUDY 87 69 54 W12G17 29.94R HX 91 AUGUSTA-DANIEL CLOUDY 84 64 50 SW8G18 29.95R SWAINSBORO PTSUNNY 81 72 74 W8G18 30.01R VIDALIA CLOUDY 82 73 74 W9G16 30.01R EASTMAN FAIR 83 62 49 W9 30.03S HAZLEHURST FAIR 86 74 67 W7G17 30.00S HX 93 ALMA PTSUNNY 86 71 60 SW13 30.01F HX 91 WAYCROSS PTSUNNY 88 76 66 W12 30.01F HX 99 JESUP PTSUNNY 88 68 51 W9 30.00S HX 91 BAXLEY PTSUNNY 86 77 74 W14 30.01R HX 97 BRUNSWICK MOSUNNY 88 73 62 W9G17 30.00F HX 96 SAINT SIMONS SUNNY 87 71 58 W9G20 30.00S HX 93 $$ SCZ027-028-034-036>038-045-046-048>050-GAZ119-141-281700- ...LAKE AND SUPPLEMENTAL COASTAL OBSERVATIONS... STATION/POSITION TIME TEMP WIND PRES WAVE SWELL AIR SEA DIR/SP/G HT/PER HT/PER/DIR (UTC) (F) (DEG/KT/KT) (MB) (FT/S) (FT/S/D) WINYAH BAY 1545 85 250/ 9 1013.0S LAKE MURRAY 1620 80 250/ 12/ 19 1011.9S ACE BASIN NERRS 1545 84 250/ 4 1015.0S FORT PULASKI 1600 85 290/ 9/ 12 1014.8 SAPELO ISLAND 1600 86 260/ 9 1016.0 $$ ANZ835-935-AMZ111-154-330-350-352-354-370-450-454-472-281700- ...C-MAN AND BUOY OBSERVATIONS... STATION/POSITION TIME TEMP WIND PRES WAVE SWELL AIR SEA DIR/SP/G HT/PER HT/PER/DIR (UTC) (F) (DEG/KT/KT) (MB) (FT/S) (FT/S/D) BUOY 41004 1610 77 76 220/ 12/ 14 1014.0 BUOY 41008 1550 79 78 230/ 8/ 8 1015.7R 2/ 4 2/100/ 9 FOLLY BEACH CMAN 1600 84 240/ 8/ 11 1014.7F CAPERS NEARSHORE 1608 83 78 220/ 12/ 16 1013.2F FRIPP NEARSHORE 1608 80 78 250/ 6/ 10 1014.6F STATION/POSITION TIME TEMP WIND PRES WAVE SWELL AIR SEA DIR/SP/G HT/PER HT/PER/DIR (UTC) (F) (DEG/KT/KT) (MB) (FT/S) (FT/S/D) 5E ST. MARYS GA 1600 79 N/A 1/ 8 FRYING PAN BUOY 1610 76 75 230/ 16/ 19 1013.6 BUOY 41025 1550 76 77 220/ 12/ 14 1012.0R 3/ 6 2/220/ 6 CAPE LOOKOUT NC 1600 79 230/ 12/ 17 1012.1R BUOY 41002 1550 77 77 230/ 16/ 19 1015.9R 4/ 5 2/110/ 8 BUOY 41010 1610 81 80 210/ 8/ 12 1016.5 ST AUGUSTINE FL 1600 84 76 270/ 6/ 10 1017.9R $$

USA.gov is the U.S. government's official web portal to all federal, state and local government web resources and services.